Regional Weather Roundup
Issued by NWS

Home | Current Version | Previous Version | Graphics & Text | Print | Product List | Glossary On
Versions: 1 2 3 4 5 6 7 8 9 10 11 12 13 14 15 16 17 18 19 20 21 22 23 24 25 26 27 28 29 30 31 32 33 34 35 36 37 38 39 40 41 42 43 44 45 46 47 48 49 50
000
ASUS44 KMEG 191200
RWRTN
TENNESSEE HOURLY STATE WEATHER ROUNDUP
NATIONAL WEATHER SERVICE MEMPHIS TN
700 AM CDT SAT AUG 19 2017

TNZ002-004-019-021-049-052-054-088>092-191300-
WEST TENNESSEE

CITY           SKY/WX    TMP DP  RH WIND       PRES   REMARKS
MEMPHIS INTL   PTCLDY    75  71  87 CALM      29.97R
NWS MEMPHIS      N/A     72 N/A N/A MISG        N/A
JACKSON        PTCLDY    68  67  96 CALM      29.98R
DYERSBURG      CLEAR     69  67  93 CALM      29.97S
$$

TNZ008-025-027-028-033-062-065-066-191300-
NORTH MIDDLE TENNESSEE

CITY           SKY/WX    TMP DP  RH WIND       PRES   REMARKS
NASHVILLE      PTCLDY    68  66  93 S5        30.01R
CLARKSVILLE    MOCLDY    68  66  93 CALM      29.99R
SMYRNA         CLEAR     67  66  97 CALM      30.02R
CROSSVILLE     MOSUNNY   62  61  96 CALM      30.08R
$$

TNZ061-075-076-078-094-096-097-191300-
SOUTH MIDDLE TENNESSEE

CITY           SKY/WX    TMP DP  RH WIND       PRES   REMARKS
TULLAHOMA      MOCLDY    64  64 100 CALM      30.04R VSB 1/2
WINCHESTER     CLEAR     66  64  94 CALM      30.03R
$$

TNZ017-018-042-046-047-191300-
NORTHEAST TENNESSEE

CITY           SKY/WX    TMP DP  RH WIND       PRES   REMARKS
TRI CITIES     FOG       66  66 100 CALM      30.05R VSB 1/4
$$

TNZ012-013-036-069-073-074-191300-
CENTRAL EAST TENNESSEE

CITY           SKY/WX    TMP DP  RH WIND       PRES   REMARKS
KNOXVILLE      MOSUNNY   68  65  90 NW5       30.03R
OAK RIDGE      SUNNY     67  64  90 CALM      30.05R
GATLINBURG     SUNNY     64  64 100 CALM      30.03S
$$

TNZ083-085-099-191300-
SOUTHEAST TENNESSEE

CITY           SKY/WX    TMP DP  RH WIND       PRES   REMARKS
CHATTANOOGA    MOSUNNY   69  66  90 CALM      30.02R
$$

SKY/WX REPORTED AS FAIR MEANS FEW OR NO CLOUDS BELOW
12 THOUSAND FEET.




USA.gov is the U.S. government's official web portal to all federal, state and local government web resources and services.